Surface/Precipitation History
02/05/2016 00:06  to  2/6/2016 00:06
Change End Date:
Date/Time
(MST)
Sf
Temp Chem Water Layer Surface Precipitation
Sfc Pvt Sub Frz Factor Pct Dpth DpthThk IcePct Cond Salin FI Type Intens Accum Rate
02/05/2016 23:55 Ice Warning 17.4F - - 32F 95 0% - - 99% 0 mhos 146 - None None - -
02/05/2016 23:46 Ice Warning 17.6F - - 32F 95 0% - - 99% 0 mhos 145 - None None - -
02/05/2016 23:40 Ice Warning 17.4F - - 32F 95 0% - - 99% 0 mhos 146 - None None - -
02/05/2016 23:36 Ice Warning 17.4F - - 32F 95 0% - - 99% 0 mhos 145 - None None - -
02/05/2016 23:26 Ice Warning 17.2F - - 32F 95 0% - - 99% 0 mhos 148 - None None - -
02/05/2016 23:25 Ice Warning 17.2F - - 32F 95 0% - - 99% 0 mhos 148 - None None - -
02/05/2016 23:16 Ice Warning 17.4F - - 32F 95 0% - - 99% 0 mhos 144 - None None - -
02/05/2016 23:10 Ice Warning 17.4F - - 32F 95 0% - - 99% 0 mhos 144 - None None - -
02/05/2016 23:06 Ice Warning 17.2F - - 32F 90 0% - - 99% 0 mhos 145 - None None - -
02/05/2016 22:55 Ice Warning 17.2F - - 32F 95 0% - - 99% 0 mhos 141 - None None - -
02/05/2016 22:55 Ice Warning 17.2F - - 32F 95 0% - - 99% 0 mhos 141 - None None - -
02/05/2016 22:45 Ice Warning 17.2F - - 32F 95 0% - - 99% 0 mhos 142 - None None - -
02/05/2016 22:40 Ice Warning 17.4F - - 32F 90 0% - - 99% 0 mhos 141 - None None - -
02/05/2016 22:35 Ice Warning 17.2F - - 32F 95 0% - - 99% 0 mhos 145 - None None - -
02/05/2016 22:25 Ice Warning 17.2F - - 32F 90 0% - - 99% 0 mhos 145 - None None - -
Date/Time
(MST)
Sf
Temp Chem Water Layer Surface Precipitation
Sfc Pvt Sub Frz Factor Pct Dpth DpthThk IcePct Cond Salin FI Type Intens Accum Rate
02/05/2016 22:25 Ice Warning 17.2F - - 32F 90 0% - - 99% 0 mhos 145 - None None - -
02/05/2016 22:15 Ice Warning 17.4F - - 32F 95 0% - - 99% 0 mhos 141 - None None - -
02/05/2016 22:10 Ice Warning 17.4F - - 32F 95 0% - - 99% 0 mhos 141 - None None - -
02/05/2016 22:05 Ice Warning 17.4F - - 32F 95 0% - - 99% 0 mhos 139 - None None - -
02/05/2016 21:55 Ice Warning 17.4F - - 32F 90 0% - - 99% 0 mhos 140 - None None - -
02/05/2016 21:55 Ice Warning 17.4F - - 32F 90 0% - - 99% 0 mhos 140 - None None - -
02/05/2016 21:45 Ice Warning 17.4F - - 32F 95 0% - - 99% 0 mhos 138 - None None - -
02/05/2016 21:40 Ice Warning 17.2F - - 32F 90 0% - - 99% 0 mhos 137 - None None - -
02/05/2016 21:35 Ice Warning 17.4F - - 32F 95 0% - - 99% 0 mhos 136 - None None - -
02/05/2016 21:25 Ice Warning 17.4F - - 32F 90 0% - - 99% 0 mhos 134 - None None - -
02/05/2016 21:25 Ice Warning 17.4F - - 32F 90 0% - - 99% 0 mhos 134 - None None - -
02/05/2016 21:15 Ice Warning 17.6F - - 32F 90 0% - - 99% 0 mhos 133 - None None - -
02/05/2016 21:10 Ice Warning 17.4F - - 32F 90 0% - - 99% 0 mhos 133 - None None - -
02/05/2016 21:05 Ice Warning 17.4F - - 32F 90 0% - - 99% 0 mhos 132 - None None - -
02/05/2016 20:55 Ice Warning 17.6F - - 32F 90 0% - - 99% 0 mhos 132 - None None - -
Date/Time
(MST)
Sf
Temp Chem Water Layer Surface Precipitation
Sfc Pvt Sub Frz Factor Pct Dpth DpthThk IcePct Cond Salin FI Type Intens Accum Rate
02/05/2016 20:55 Ice Warning 17.6F - - 32F 90 0% - - 99% 0 mhos 132 - None None - -
02/05/2016 20:45 Ice Warning 17.4F - - 32F 90 0% - - 99% 0 mhos 135 - None None - -
02/05/2016 20:40 Ice Warning 17.4F - - 32F 90 0% - - 99% 0 mhos 133 - None None - -
02/05/2016 20:35 Ice Warning 17.4F - - 32F 90 0% - - 99% 0 mhos 133 - None None - -
02/05/2016 20:25 Ice Warning 17.4F - - 32F 90 0% - - 99% 0 mhos 131 - None None - -
02/05/2016 20:25 Ice Warning 17.4F - - 32F 90 0% - - 99% 0 mhos 131 - None None - -
02/05/2016 20:15 Ice Warning 17.2F - - 32F 90 0% - - 99% 0 mhos 130 - None None - -
02/05/2016 20:10 Ice Warning 17.4F - - 32F 90 0% - - 99% 0 mhos 128 - None None - -
02/05/2016 20:05 Ice Warning 17.6F - - 32F 90 0% - - 99% 0 mhos 126 - None None - -
02/05/2016 19:55 Ice Warning 17.6F - - 32F 90 0% - - 99% 0 mhos 125 - None None - -
02/05/2016 19:55 Ice Warning 17.6F - - 32F 90 0% - - 99% 0 mhos 125 - None None - -
02/05/2016 19:44 Ice Warning 17.4F - - 32F 95 0% - - 99% 0 mhos 126 - None None - -
02/05/2016 19:40 Ice Warning 17.6F - - 32F 95 0% - - 99% 0 mhos 125 - None None - -
02/05/2016 19:34 Ice Warning 17.8F - - 32F 95 0% - - 99% 0 mhos 124 - None None - -
02/05/2016 19:25 Ice Warning 17.6F - - 32F 95 0% - - 99% 0 mhos 130 - None None - -
Date/Time
(MST)
Sf
Temp Chem Water Layer Surface Precipitation
Sfc Pvt Sub Frz Factor Pct Dpth DpthThk IcePct Cond Salin FI Type Intens Accum Rate
02/05/2016 19:24 Ice Warning 17.6F - - 32F 95 0% - - 99% 0 mhos 130 - None None - -
02/05/2016 19:14 Ice Warning 17.6F - - 32F 80 0% - - 99% 0 mhos 127 - None None - -
02/05/2016 19:10 Ice Warning 17.6F - - 32F 80 0% - - 99% 0 mhos 124 - None None - -
02/05/2016 19:04 Ice Warning 17.4F - - 32F 80 0% - - 99% 0 mhos 127 - None None - -
02/05/2016 18:55 Ice Warning 17.8F - - 32F 85 0% - - 99% 0 mhos 120 - None None - -
02/05/2016 18:54 Ice Warning 17.8F - - 32F 85 0% - - 99% 0 mhos 120 - None None - -
02/05/2016 18:44 Ice Warning 17.8F - - 32F 80 0% - - 99% 0 mhos 118 - None None - -
02/05/2016 18:40 Ice Warning 18.0F - - 32F 80 0% - - 99% 0 mhos 117 - None None - -
02/05/2016 18:34 Ice Warning 17.8F - - 32F 80 0% - - 99% 0 mhos 120 - None None - -
02/05/2016 18:25 Ice Warning 18.0F - - 32F 80 0% - - 99% 0 mhos 118 - None None - -
02/05/2016 18:24 Ice Warning 18.0F - - 32F 80 0% - - 99% 0 mhos 119 - None None - -
02/05/2016 18:14 Ice Warning 18.1F - - 32F 85 0% - - 99% 0 mhos 114 - None None - -
02/05/2016 18:10 Ice Warning 18.0F - - 32F 80 0% - - 99% 0 mhos 114 - None None - -
02/05/2016 18:04 Ice Warning 18.0F - - 32F 80 0% - - 99% 0 mhos 115 - None None - -
02/05/2016 17:55 Ice Warning 18.1F - - 32F 85 0% - - 99% 0 mhos 113 - None None - -
Date/Time
(MST)
Sf
Temp Chem Water Layer Surface Precipitation
Sfc Pvt Sub Frz Factor Pct Dpth DpthThk IcePct Cond Salin FI Type Intens Accum Rate
02/05/2016 17:54 Ice Warning 18.1F - - 32F 85 0% - - 99% 0 mhos 113 - None None - -
02/05/2016 17:44 Ice Warning 18.9F - - 32F 85 0% - - 99% 0 mhos 106 - None None - -
02/05/2016 17:40 Ice Warning 19.0F - - 32F 85 0% - - 99% 0 mhos 106 - None None - -
02/05/2016 17:34 Ice Warning 19.0F - - 32F 90 0% - - 99% 0 mhos 105 - None None - -
02/05/2016 17:25 Ice Warning 19.8F - - 32F 90 0% - - 99% 0 mhos 103 - None None - -
02/05/2016 17:24 Ice Warning 19.8F - - 32F 90 0% - - 99% 0 mhos 103 - None None - -
02/05/2016 17:14 Ice Warning 20.1F - - 32F 95 0% - - 99% 0 mhos 100 - None None - -
02/05/2016 17:10 Ice Warning 20.3F - - 32F 95 0% - - 99% 0 mhos 98 - None None - -
02/05/2016 17:04 Ice Warning 21.0F - - 32F 95 0% - - 99% 0 mhos 95 - None None - -
02/05/2016 16:55 Ice Warning 21.4F - - 32F 95 0% - - 99% 0 mhos 95 - None None - -
02/05/2016 16:54 Ice Warning 21.6F - - 32F 95 0% - - 99% 0 mhos 93 - None None - -
02/05/2016 16:44 Ice Warning 22.5F - - 32F 95 0% - - 99% 0 mhos 90 - None None - -
02/05/2016 16:40 Ice Warning 22.5F - - 32F 95 0% - - 99% 0 mhos 92 - None None - -
02/05/2016 16:33 Ice Warning 22.5F - - 32F 95 0% - - 99% 0 mhos 93 - None None - -
02/05/2016 16:25 Ice Warning 23.4F - - 32F 95 0% - - 99% 0 mhos 92 - None None - -
Date/Time
(MST)
Sf
Temp Chem Water Layer Surface Precipitation
Sfc Pvt Sub Frz Factor Pct Dpth DpthThk IcePct Cond Salin FI Type Intens Accum Rate
02/05/2016 16:23 Ice Warning 23.7F - - 32F 95 0% - - 99% 0 mhos 91 - None None - -
02/05/2016 16:13 Ice Warning 24.4F - - 32F 95 0% - - 99% 0 mhos 93 - None None - -
02/05/2016 16:10 Ice Warning 24.6F - - 32F 95 0% - - 99% 1 mhos 105 - None None - -
02/05/2016 16:03 Ice Watch 24.8F - - - 95 - - - - 1 mhos 103 - None None - -
02/05/2016 15:55 Ice Watch 25.5F - - - 95 - - - - 1 mhos 89 - None None - -
02/05/2016 15:53 Ice Watch 26.1F - - - 95 - - - - 0 mhos 77 - None None - -
02/05/2016 15:43 Ice Watch 27.9F - - - 85 - - - - 0 mhos 34 - None None - -
02/05/2016 15:40 Ice Watch 28.4F - - - 20 - - - - 0 mhos 28 - None None - -
02/05/2016 15:33 Dry 29.3F - - - - - - - - 0 mhos 2 - None None - -
02/05/2016 15:25 Dry 30.4F - - - - - - - - 0 mhos 0 - None None - -
02/05/2016 15:23 Dry 30.7F - - - - - - - - 0 mhos 0 - None None - -
02/05/2016 15:13 Dry 31.6F - - - - - - - - 0 mhos 0 - None None - -
02/05/2016 15:10 Dry 32.0F - - - - - - - - 0 mhos 0 - None None - -
02/05/2016 15:03 Dry 32.2F - - - - - - - - 0 mhos 0 - None None - -
02/05/2016 14:55 Dry 32.5F - - - - - - - - 0 mhos 0 - None None - -
Date/Time
(MST)
Sf
Temp Chem Water Layer Surface Precipitation
Sfc Pvt Sub Frz Factor Pct Dpth DpthThk IcePct Cond Salin FI Type Intens Accum Rate
02/05/2016 14:53 Dry 32.5F - - - - - - - - 0 mhos 0 - None None - -
02/05/2016 14:43 Dry 32.9F - - - - - - - - 0 mhos 0 - None None - -
02/05/2016 14:40 Dry 33.1F - - - - - - - - 0 mhos 0 - None None - -
02/05/2016 14:33 Dry 33.1F - - - - - - - - 0 mhos 0 - None None - -
02/05/2016 14:25 Dry 33.3F - - - - - - - - 0 mhos 0 - None None - -
02/05/2016 14:23 Dry 33.4F - - - - - - - - 0 mhos 0 - None None - -
02/05/2016 14:13 Dry 33.4F - - - - - - - - 0 mhos 0 - None None - -
02/05/2016 14:10 Dry 33.6F - - - - - - - - 0 mhos 0 - None None - -
02/05/2016 14:03 Dry 33.8F - - - - - - - - 0 mhos 0 - None None - -
02/05/2016 13:55 Dry 33.8F - - - - - - - - 0 mhos 8 - None None - -
02/05/2016 13:53 Dry 33.6F - - - - - - - - 0 mhos 15 - None None - -
02/05/2016 13:43 Dry 33.4F - - - - - - - - 1 mhos 59 - None None - -
02/05/2016 13:40 Dry 33.3F - - - - - - - - 1 mhos 71 - None None - -
02/05/2016 13:33 Dry 32.7F - - - - - - - - 1 mhos 105 - None None - -
02/05/2016 13:25 Dry 32.2F - - - - - - - - 2 mhos 181 - None None - -
Date/Time
(MST)
Sf
Temp Chem Water Layer Surface Precipitation
Sfc Pvt Sub Frz Factor Pct Dpth DpthThk IcePct Cond Salin FI Type Intens Accum Rate
02/05/2016 13:22 Dry 32.0F - - - - - - - - 2 mhos 208 - None None - -
02/05/2016 13:12 Dry 31.8F - - - - - - - - 3 mhos 306 - None None - -
02/05/2016 13:10 Ice Watch 31.8F - - - 5 - - - - 3 mhos 290 - None None - -
02/05/2016 13:02 Ice Warning 31.1F - - 32F 5 0% - - 97% 1 mhos 57 - None None - -
02/05/2016 12:55 Ice Warning 30.4F - - 32F 5 0% - - 99% 0 mhos 41 - None None - -
02/05/2016 12:52 Ice Warning 29.7F - - 32F 5 0% - - 99% 0 mhos 42 - None None - -
02/05/2016 12:42 Ice Warning 28.0F - - 32F 5 0% - - 99% 0 mhos 54 - None None - -
02/05/2016 12:40 Ice Warning 27.7F - - 32F 5 0% - - 99% 0 mhos 53 - None None - -
02/05/2016 12:32 Ice Warning 26.1F - - 32F 35 0% - - 99% 0 mhos 56 - None None - -
02/05/2016 12:25 Ice Warning 28.6F - - 32F 5 0% - - 99% 0 mhos 48 - None None - -
02/05/2016 12:22 Ice Warning 28.8F - - 32F 5 0% - - 99% 0 mhos 46 - None None - -
02/05/2016 12:12 Ice Warning 27.1F - - 32F 5 0% - - 99% 0 mhos 52 - Yes - - -
02/05/2016 12:10 Ice Warning 27.3F - - 32F 5 0% - - 99% 0 mhos 51 - Yes - - -
02/05/2016 12:02 Ice Warning 27.5F - - 32F 5 0% - - 99% 0 mhos 56 - None None - -
02/05/2016 11:55 Dry 27.5F - - - - - - - - 0 mhos 54 - None None - -
Date/Time
(MST)
Sf
Temp Chem Water Layer Surface Precipitation
Sfc Pvt Sub Frz Factor Pct Dpth DpthThk IcePct Cond Salin FI Type Intens Accum Rate
02/05/2016 11:52 Ice Warning 26.1F - - 32F 5 0% - - 99% 0 mhos 60 - Yes - - -
02/05/2016 11:42 Ice Warning 24.6F - - 32F 5 0% - - 99% 0 mhos 66 - None None - -
02/05/2016 11:40 Ice Warning 25.3F - - 32F 5 0% - - 99% 0 mhos 62 - None None - -
02/05/2016 11:32 Ice Warning 24.1F - - 32F 5 0% - - 99% 0 mhos 70 - None None - -
02/05/2016 11:25 Ice Warning 22.8F - - 32F 5 0% - - 99% 0 mhos 78 - None None - -
02/05/2016 11:22 Ice Warning 22.1F - - 32F 5 0% - - 99% 0 mhos 83 - None None - -
02/05/2016 11:12 Dry 24.3F - - - - - - - - 0 mhos 75 - None None - -
02/05/2016 11:10 Dry 23.4F - - - - - - - - 0 mhos 81 - None None - -
02/05/2016 11:02 Ice Warning 20.5F - - 32F 20 0% - - 99% 0 mhos 100 - None None - -
02/05/2016 10:55 Ice Warning 19.2F - - 32F 25 0% - - 99% 0 mhos 111 - None None - -
02/05/2016 10:52 Ice Warning 18.7F - - 32F 35 0% - - 99% 0 mhos 118 - None None - -
02/05/2016 10:42 Ice Warning 18.0F - - 32F 55 0% - - 99% 0 mhos 125 - None None - -
02/05/2016 10:40 Ice Warning 17.8F - - 32F 60 0% - - 99% 0 mhos 127 - None None - -
02/05/2016 10:32 Ice Warning 17.1F - - 32F 70 0% - - 99% 0 mhos 136 - None None - -
02/05/2016 10:25 Ice Warning 16.3F - - 32F 60 0% - - 99% 0 mhos 143 - None None - -
Date/Time
(MST)
Sf
Temp Chem Water Layer Surface Precipitation
Sfc Pvt Sub Frz Factor Pct Dpth DpthThk IcePct Cond Salin FI Type Intens Accum Rate
02/05/2016 10:22 Ice Warning 16.3F - - 32F 65 0% - - 99% 0 mhos 143 - None None - -
02/05/2016 10:11 Ice Warning 15.6F - - 32F 65 1% - - 99% 0 mhos 153 - None None - -
02/05/2016 10:10 Ice Warning 15.4F - - 32F 70 1% - - 99% 0 mhos 155 - None None - -
02/05/2016 10:01 Ice Warning 14.2F - - 32F 70 1% - - 99% 0 mhos 169 - Yes - - -
02/05/2016 09:55 Ice Warning 13.5F - - 32F 70 1% - - 99% 0 mhos 177 - None None - -
02/05/2016 09:51 Ice Warning 13.3F - - 32F 70 1% - - 99% 0 mhos 179 - None None - -
02/05/2016 09:41 Ice Warning 13.3F - - 32F 75 1% - - 99% 0 mhos 180 - None None - -
02/05/2016 09:40 Ice Warning 13.1F - - 32F 75 1% - - 99% 0 mhos 184 - Yes - - -
02/05/2016 09:31 Ice Warning 12.6F - - 32F 70 1% - - 99% 0 mhos 188 - Yes - - -
02/05/2016 09:25 Ice Warning 12.0F - - 32F 70 1% - - 99% 0 mhos 196 - None None - -
02/05/2016 09:21 Ice Warning 11.8F - - 32F 70 1% - - 99% 0 mhos 197 - None None - -
02/05/2016 09:11 Ice Warning 11.1F - - 32F 70 1% - - 99% 0 mhos 206 - Yes - - -
02/05/2016 09:10 Ice Warning 10.9F - - 32F 70 1% - - 99% 0 mhos 208 - None None - -
02/05/2016 09:01 Ice Warning 10.4F - - 32F 65 1% - - 99% 0 mhos 215 - None None - -
02/05/2016 08:55 Ice Warning 10.0F - - 32F 65 1% - - 99% 0 mhos 219 - None None - -
Date/Time
(MST)
Sf
Temp Chem Water Layer Surface Precipitation
Sfc Pvt Sub Frz Factor Pct Dpth DpthThk IcePct Cond Salin FI Type Intens Accum Rate
02/05/2016 08:51 Ice Warning 9.5F - - 32F 65 1% - - 99% 0 mhos 224 - None None - -
02/05/2016 08:41 Ice Warning 8.6F - - 32F 60 1% - - 99% 0 mhos 237 - None None - -
02/05/2016 08:40 Ice Warning 8.2F - - 32F 60 1% - - 99% 0 mhos 245 - None None - -
02/05/2016 08:31 Ice Warning 7.3F - - 32F 60 1% - - 99% 0 mhos 255 - None None - -
02/05/2016 08:25 Ice Warning 6.3F - - 32F 55 1% - - 99% 0 mhos 274 - None None - -
02/05/2016 08:21 Ice Warning 6.1F - - 32F 55 1% - - 99% 0 mhos 277 - None None - -
02/05/2016 08:11 Ice Warning 5.4F - - 32F 50 1% - - 99% 0 mhos 289 - None None - -
02/05/2016 08:10 Ice Warning 5.0F - - 32F 50 1% - - 99% 0 mhos 294 - None None - -
02/05/2016 08:01 Ice Warning 5.0F - - 32F 45 1% - - 99% 0 mhos 293 - None None - -
02/05/2016 07:55 Ice Warning 4.8F - - 32F 45 1% - - 99% 0 mhos 296 - None None - -
02/05/2016 07:51 Ice Warning 4.6F - - 32F 45 1% - - 99% 0 mhos 298 - None None - -
02/05/2016 07:41 Ice Warning 4.6F - - 32F 40 1% - - 99% 0 mhos 299 - None None - -
02/05/2016 07:40 Ice Warning 4.6F - - 32F 40 1% - - 99% 0 mhos 299 - None None - -
02/05/2016 07:31 Ice Warning 4.6F - - 32F 40 1% - - 99% 0 mhos 298 - None None - -
02/05/2016 07:25 Ice Warning 4.8F - - 32F 40 1% - - 99% 0 mhos 295 - None None - -
Date/Time
(MST)
Sf
Temp Chem Water Layer Surface Precipitation
Sfc Pvt Sub Frz Factor Pct Dpth DpthThk IcePct Cond Salin FI Type Intens Accum Rate
02/05/2016 07:21 Ice Warning 4.6F - - 32F 40 1% - - 99% 0 mhos 300 - None None - -
02/05/2016 07:11 Ice Warning 4.6F - - 32F 40 1% - - 99% 0 mhos 297 - None None - -
02/05/2016 07:10 Ice Warning 4.6F - - 32F 40 1% - - 99% 0 mhos 297 - None None - -
02/05/2016 07:00 Ice Warning 4.3F - - 32F 40 1% - - 99% 0 mhos 305 - None None - -
02/05/2016 06:55 Ice Warning 4.1F - - 32F 40 1% - - 99% 0 mhos 307 - None None - -
02/05/2016 06:50 Ice Warning 3.9F - - 32F 35 1% - - 99% 0 mhos 309 - None None - -
02/05/2016 06:40 Ice Warning 3.9F - - 32F 35 1% - - 99% 0 mhos 308 - None None - -
02/05/2016 06:40 Ice Warning 3.9F - - 32F 35 1% - - 99% 0 mhos 308 - None None - -
02/05/2016 06:30 Ice Warning 3.7F - - 32F 35 1% - - 99% 0 mhos 311 - None None - -
02/05/2016 06:25 Ice Warning 3.7F - - 32F 35 1% - - 99% 0 mhos 310 - None None - -
02/05/2016 06:20 Ice Warning 3.4F - - 32F 35 1% - - 99% 0 mhos 315 - None None - -
02/05/2016 06:10 Ice Warning 3.4F - - 32F 30 1% - - 99% 0 mhos 314 - None None - -
02/05/2016 06:10 Ice Warning 3.4F - - 32F 30 1% - - 99% 0 mhos 314 - None None - -
02/05/2016 06:00 Ice Warning 3.2F - - 32F 30 1% - - 99% 0 mhos 320 - None None - -
02/05/2016 05:55 Ice Warning 3.4F - - 32F 30 1% - - 99% 0 mhos 318 - None None - -
Date/Time
(MST)
Sf
Temp Chem Water Layer Surface Precipitation
Sfc Pvt Sub Frz Factor Pct Dpth DpthThk IcePct Cond Salin FI Type Intens Accum Rate
02/05/2016 05:50 Ice Warning 3.2F - - 32F 30 1% - - 99% 0 mhos 320 - None None - -
02/05/2016 05:40 Ice Warning 3.0F - - 32F 30 1% - - 99% 0 mhos 323 - None None - -
02/05/2016 05:40 Ice Warning 3.0F - - 32F 30 1% - - 99% 0 mhos 323 - None None - -
02/05/2016 05:30 Ice Warning 3.2F - - 32F 30 1% - - 99% 0 mhos 320 - None None - -
02/05/2016 05:25 Ice Warning 3.4F - - 32F 30 1% - - 99% 0 mhos 316 - None None - -
02/05/2016 05:20 Ice Warning 3.6F - - 32F 30 1% - - 99% 0 mhos 313 - None None - -
02/05/2016 05:10 Ice Warning 4.1F - - 32F 30 1% - - 99% 0 mhos 302 - None None - -
02/05/2016 05:10 Ice Warning 4.1F - - 32F 30 1% - - 99% 0 mhos 302 - None None - -
02/05/2016 05:00 Ice Warning 4.3F - - 32F 25 1% - - 99% 0 mhos 300 - None None - -
02/05/2016 04:55 Ice Warning 4.3F - - 32F 25 1% - - 99% 0 mhos 300 - None None - -
02/05/2016 04:50 Ice Warning 4.5F - - 32F 25 1% - - 99% 0 mhos 294 - None None - -
02/05/2016 04:40 Ice Warning 4.5F - - 32F 25 1% - - 99% 0 mhos 298 - None None - -
02/05/2016 04:40 Ice Warning 4.5F - - 32F 25 1% - - 99% 0 mhos 298 - None None - -
02/05/2016 04:30 Ice Warning 5.0F - - 32F 25 1% - - 99% 0 mhos 293 - None None - -
02/05/2016 04:25 Ice Warning 5.2F - - 32F 25 1% - - 99% 0 mhos 289 - None None - -
Date/Time
(MST)
Sf
Temp Chem Water Layer Surface Precipitation
Sfc Pvt Sub Frz Factor Pct Dpth DpthThk IcePct Cond Salin FI Type Intens Accum Rate
02/05/2016 04:20 Ice Warning 5.4F - - 32F 25 1% - - 99% 0 mhos 289 - None None - -
02/05/2016 04:10 Ice Warning 5.5F - - 32F 30 1% - - 99% 0 mhos 287 - None None - -
02/05/2016 04:10 Ice Warning 5.5F - - 32F 30 1% - - 99% 0 mhos 287 - None None - -
02/05/2016 04:00 Ice Warning 5.9F - - 32F 30 1% - - 99% 0 mhos 283 - None None - -
02/05/2016 03:55 Ice Warning 5.7F - - 32F 30 1% - - 99% 0 mhos 287 - None None - -
02/05/2016 03:49 Ice Warning 5.7F - - 32F 30 1% - - 99% 0 mhos 286 - None None - -
02/05/2016 03:40 Ice Warning 5.5F - - 32F 30 1% - - 99% 0 mhos 288 - None None - -
02/05/2016 03:39 Ice Warning 5.5F - - 32F 30 1% - - 99% 0 mhos 288 - None None - -
02/05/2016 03:29 Ice Warning 6.1F - - 32F 30 1% - - 99% 0 mhos 281 - None None - -
02/05/2016 03:25 Ice Warning 5.7F - - 32F 30 1% - - 99% 0 mhos 286 - None None - -
02/05/2016 03:19 Ice Warning 5.9F - - 32F 30 1% - - 99% 0 mhos 284 - None None - -
02/05/2016 03:10 Ice Warning 6.3F - - 32F 30 1% - - 99% 0 mhos 281 - None None - -
02/05/2016 03:09 Ice Warning 6.3F - - 32F 30 1% - - 99% 0 mhos 281 - None None - -
02/05/2016 02:59 Ice Warning 6.3F - - 32F 30 1% - - 99% 0 mhos 290 - None None - -
02/05/2016 02:55 Ice Warning 6.1F - - 32F 35 1% - - 99% 0 mhos 301 - None None - -
Date/Time
(MST)
Sf
Temp Chem Water Layer Surface Precipitation
Sfc Pvt Sub Frz Factor Pct Dpth DpthThk IcePct Cond Salin FI Type Intens Accum Rate
02/05/2016 02:49 Ice Warning 5.7F - - 32F 35 1% - - 99% 0 mhos 306 - None None - -
02/05/2016 02:40 Ice Warning 5.5F - - 32F 35 1% - - 99% 0 mhos 310 - None None - -
02/05/2016 02:39 Ice Warning 5.5F - - 32F 35 1% - - 99% 0 mhos 310 - None None - -
02/05/2016 02:29 Ice Warning 5.5F - - 32F 35 1% - - 99% 0 mhos 314 - None None - -
02/05/2016 02:25 Ice Warning 5.4F - - 32F 35 1% - - 99% 0 mhos 320 - None None - -
02/05/2016 02:19 Ice Warning 5.4F - - 32F 35 1% - - 99% 0 mhos 321 - None None - -
02/05/2016 02:10 Ice Warning 4.6F - - 32F 40 1% - - 99% 0 mhos 333 - None None - -
02/05/2016 02:09 Ice Warning 4.8F - - 32F 40 1% - - 99% 0 mhos 332 - None None - -
02/05/2016 01:59 Ice Warning 4.6F - - 32F 40 1% - - 99% 0 mhos 339 - None None - -
02/05/2016 01:55 Ice Warning 5.0F - - 32F 40 1% - - 99% 0 mhos 332 - None None - -
02/05/2016 01:49 Ice Warning 5.4F - - 32F 40 1% - - 99% 0 mhos 330 - None None - -
02/05/2016 01:40 Ice Warning 6.3F - - 32F 45 1% - - 99% 0 mhos 311 - None None - -
02/05/2016 01:39 Ice Warning 6.3F - - 32F 45 1% - - 99% 0 mhos 314 - None None - -
02/05/2016 01:29 Ice Warning 6.6F - - 32F 45 1% - - 99% 0 mhos 305 - None None - -
02/05/2016 01:25 Ice Warning 6.6F - - 32F 45 1% - - 99% 0 mhos 307 - None None - -
Date/Time
(MST)
Sf
Temp Chem Water Layer Surface Precipitation
Sfc Pvt Sub Frz Factor Pct Dpth DpthThk IcePct Cond Salin FI Type Intens Accum Rate
02/05/2016 01:19 Ice Warning 6.4F - - 32F 45 1% - - 99% 0 mhos 314 - None None - -
02/05/2016 01:10 Ice Warning 6.3F - - 32F 45 1% - - 99% 0 mhos 316 - None None - -
02/05/2016 01:09 Ice Warning 6.1F - - 32F 45 1% - - 99% 0 mhos 319 - None None - -
02/05/2016 00:59 Ice Warning 6.3F - - 32F 45 1% - - 99% 0 mhos 313 - None None - -
02/05/2016 00:55 Ice Warning 6.8F - - 32F 45 1% - - 99% 0 mhos 302 - None None - -
02/05/2016 00:49 Ice Warning 6.4F - - 32F 45 1% - - 99% 0 mhos 309 - None None - -
02/05/2016 00:40 Ice Warning 6.8F - - 32F 45 1% - - 99% 0 mhos 301 - None None - -
02/05/2016 00:38 Ice Warning 7.2F - - 32F 50 1% - - 99% 0 mhos 297 - None None - -
02/05/2016 00:28 Ice Warning 7.3F - - 32F 50 1% - - 99% 0 mhos 294 - None None - -
02/05/2016 00:25 Ice Warning 7.2F - - 32F 45 1% - - 99% 0 mhos 299 - None None - -
02/05/2016 00:18 Ice Warning 6.8F - - 32F 45 1% - - 99% 0 mhos 303 - None None - -
02/05/2016 00:10 Ice Warning 7.2F - - 32F 50 1% - - 99% 0 mhos 300 - None None - -
02/05/2016 00:08 Ice Warning 6.8F - - 32F 50 1% - - 99% 0 mhos 305 - None None - -
Change End Date:

Copyright © 1998-2015 Vaisala, Inc.
All Rights Reserved
Send comments about the data to:
SCAN Web ® is a registered trademark of Vaisala, Inc.
SCAN Web Version 6.0